User: anonymous   Login
Location: Muenchen
(48.1800°N, 11.5800°E)
Time: 05:39:18
(UTC+02:00)
Language:

Tiros 1 - Orbit

View from above orbital plane
View from above orbital plane
View from above satellite
View from above satellite

Ground track
Ground track

The orbit data is extracted from the following two-line orbital elements,

1 00029U 60002B   16152.85584604 -.00000022  00000-0  27806-4 0  9996
2 00029  48.3801  80.5115 0024007  30.9813 329.2510 14.74062363   642
Epoch (UTC): 31 May 2016 20:32:25
Eccentricity: 0.0024007
inclination: 48.3801°
perigee height: 631 km
apogee height: 665 km
right ascension of ascending node: 80.5115°
argument of perigee: 30.9813°
revolutions per day: 14.74062363
mean anomaly at epoch: 329.2510°
orbit number at epoch: 64

The dashed part of the orbit path shows where the satellite is in the earth's shadow,  

DLR